CST,Max TemperatureF,Mean TemperatureF,Min TemperatureF,Max Dew PointF,MeanDew PointF,Min DewpointF,Max Humidity, Mean Humidity, Min Humidity, Max Sea Level PressureIn, Mean Sea Level PressureIn, Min Sea Level PressureIn, Max VisibilityMiles, Mean VisibilityMiles, Min VisibilityMiles, Max Wind SpeedMPH, Mean Wind SpeedMPH, Max Gust SpeedMPH,PrecipitationIn, CloudCover, Events, WindDirDegrees
2013-2-1,57,47,35,34,25,13,87,50,26,30.39,30.34,30.28,10,10,10,14,6,21,0.00,0,,316
2013-2-2,62,46,29,45,27,19,84,53,24,30.40,30.28,30.18,10,10,10,13,6,,0.00,1,Rain,195
2013-2-3,64,51,38,47,38,28,100,73,25,30.24,30.17,30.10,10,8,0,13,5,21,0.00,2,Fog-Rain,293
2013-2-4,61,48,36,43,36,32,89,61,37,30.14,30.08,30.03,10,10,10,8,3,,0.00,5,,128
2013-2-5,64,56,49,57,54,43,100,91,71,30.08,30.03,30.00,10,8,0,10,3,,0.09,6,Fog-Rain,121
2013-2-6,70,60,51,61,54,52,100,95,58,30.18,30.10,30.05,10,4,0,8,4,,0.00,5,Fog,46
2013-2-7,66,60,54,61,57,53,100,95,77,30.09,29.91,29.81,10,7,0,30,8,48,2.44,6,Fog-Rain-Thunderstorm,39
2013-2-8,68,60,51,59,54,46,97,89,62,30.17,30.02,29.93,10,7,1,15,3,23,0.14,7,Rain,350
2013-2-9,64,50,37,45,38,35,93,68,34,30.28,30.21,30.18,10,10,10,12,7,,0.00,0,,60
2013-2-10,72,59,46,61,55,40,100,84,62,30.22,30.11,30.03,10,8,0,21,11,29,2.53,6,Fog-Rain-Thunderstorm,89
2013-2-11,66,61,56,64,60,55,100,97,87,30.13,30.08,30.04,10,7,0,17,8,24,3.08,7,Fog-Rain-Thunderstorm,40
2013-2-12,62,58,55,59,57,54,100,96,85,30.08,29.90,29.76,10,8,1,15,7,,1.05,8,Rain-Thunderstorm,34
2013-2-13,62,54,45,61,53,43,100,92,64,30.04,29.85,29.76,10,7,0,14,5,22,0.03,4,Fog-Rain,291
2013-2-14,54,46,37,42,39,36,95,82,57,30.15,30.09,30.02,10,10,8,10,5,,0.00,0,,342
2013-2-15,64,48,33,42,36,32,100,66,31,30.16,30.08,30.02,10,9,2,7,3,,0.16,0,,324
2013-2-16,52,43,33,39,28,11,79,53,22,30.27,30.09,30.03,10,10,10,22,9,36,0.00,4,Rain,305
2013-2-17,52,40,27,29,20,12,78,51,22,30.40,30.32,30.27,10,10,10,7,4,,0.00,0,,264
2013-2-18,62,46,29,37,31,26,88,57,31,30.37,30.27,30.13,10,10,10,15,5,20,0.00,1,,130
2013-2-19,65,55,43,57,50,28,100,80,33,30.19,30.07,30.02,10,9,2,14,8,22,0.17,6,Rain,263
2013-2-20,59,47,35,32,25,21,75,46,24,30.23,30.17,30.10,10,10,6,13,6,,0.00,1,,8
2013-2-21,69,52,34,55,36,26,86,54,27,30.15,30.06,29.97,10,10,10,12,6,,0.00,2,,90
2013-2-22,67,63,59,67,62,55,100,98,82,30.01,29.95,29.90,10,6,1,12,6,,3.06,8,Rain-Thunderstorm,77
2013-2-23,68,60,53,68,59,52,100,98,88,29.97,29.89,29.81,10,8,0,13,5,,0.61,8,Fog-Rain,329
2013-2-24,70,58,46,52,47,40,100,85,32,30.04,29.97,29.89,10,5,0,9,4,,0.14,3,Fog-Rain-Thunderstorm,24
2013-2-25,61,56,52,59,55,50,100,95,86,29.91,29.80,29.60,10,7,2,18,10,25,1.79,8,Rain-Thunderstorm,77
2013-2-26,66,58,49,63,54,38,100,82,42,29.91,29.62,29.51,10,9,4,20,11,26,0.38,5,Rain,210
2013-2-27,59,50,42,43,39,37,86,66,48,30.02,29.96,29.92,10,10,10,12,5,,0.00,1,,248
2013-2-28,57,49,41,41,34,29,91,59,36,30.05,30.00,29.94,10,10,10,14,7,22,0.00,4,,298